OPTUS 10

Last updated on Sun Jun 21 2026 00:03:06 GMT+0000 (Coordinated Universal Time)

1 40146U 14054A 26170.98933726 -.00000152 00000+0 00000+0 0 9999 2 40146 0.0657 58.3139 0001989 23.8366 338.2294 1.00271094 43056
UTC large
Height (km)
Speed (km/s)
/
Latitude / Longitude
Inclination (degrees)
Orbital Period (minutes)
Azimuth
Elevation
Range (km)
Doppler Factor

Next 0 passes for location: London (51.5072 / 0.1276)

No passes found over London.
OPTUS 10